Time,TemperatureF,DewpointF,PressureIn,WindDirection,WindDirectionDegrees,WindSpeedMPH,WindSpeedGustMPH,Humidity,HourlyPrecipIn,Conditions,Clouds,dailyrainin,SolarRadiationWatts/m^2,SoftwareType,DateUTC
2013-05-28 00:07:00,70.5,63.0,30.18,SW,235,0.0,1.0,76,0.00,,,0.00,0,weatherlink.com 1.10,2013-05-28 04:07:00,
2013-05-28 00:22:00,70.1,63.0,30.19,WSW,240,0.0,3.0,77,0.00,,,0.00,0,weatherlink.com 1.10,2013-05-28 04:22:00,
2013-05-28 00:38:00,69.7,63.0,30.19,SSW,207,0.0,2.0,78,0.00,,,0.00,0,weatherlink.com 1.10,2013-05-28 04:38:00,
2013-05-28 00:52:00,69.4,63.0,30.19,SSW,207,0.0,3.0,79,0.00,,,0.00,0,weatherlink.com 1.10,2013-05-28 04:52:00,
2013-05-28 01:07:00,69.0,63.0,30.19,SSW,211,0.0,2.0,80,0.00,,,0.00,0,weatherlink.com 1.10,2013-05-28 05:07:00,
2013-05-28 01:22:00,68.6,63.0,30.19,WSW,240,0.0,3.0,81,0.00,,,0.00,0,weatherlink.com 1.10,2013-05-28 05:22:00,
2013-05-28 01:37:00,68.1,62.0,30.18,WSW,240,0.0,1.0,82,0.00,,,0.00,0,weatherlink.com 1.10,2013-05-28 05:37:00,
2013-05-28 01:52:00,67.6,62.0,30.18,WSW,240,0.0,1.0,83,0.00,,,0.00,0,weatherlink.com 1.10,2013-05-28 05:52:00,
2013-05-28 02:07:00,67.1,62.0,30.18,WSW,240,0.0,0.0,84,0.00,,,0.00,0,weatherlink.com 1.10,2013-05-28 06:07:00,
2013-05-28 02:22:00,66.7,62.0,30.18,WSW,240,0.0,0.0,85,0.00,,,0.00,0,weatherlink.com 1.10,2013-05-28 06:22:00,
2013-05-28 02:37:00,66.5,62.0,30.18,WSW,240,0.0,1.0,86,0.00,,,0.00,0,weatherlink.com 1.10,2013-05-28 06:37:00,
2013-05-28 02:52:00,66.2,62.0,30.17,WSW,240,0.0,0.0,86,0.00,,,0.00,0,weatherlink.com 1.10,2013-05-28 06:52:00,
2013-05-28 03:07:00,65.9,62.0,30.18,WSW,240,0.0,0.0,87,0.00,,,0.00,0,weatherlink.com 1.10,2013-05-28 07:07:00,
2013-05-28 03:22:00,65.5,62.0,30.17,WSW,240,0.0,0.0,87,0.00,,,0.00,0,weatherlink.com 1.10,2013-05-28 07:22:00,
2013-05-28 03:37:00,64.8,61.0,30.18,WSW,240,0.0,0.0,88,0.00,,,0.00,0,weatherlink.com 1.10,2013-05-28 07:37:00,
2013-05-28 03:52:00,63.9,61.0,30.17,WSW,240,0.0,0.0,90,0.00,,,0.00,0,weatherlink.com 1.10,2013-05-28 07:52:00,
2013-05-28 04:07:00,63.4,61.0,30.17,WSW,240,0.0,0.0,91,0.00,,,0.00,0,weatherlink.com 1.10,2013-05-28 08:07:00,
2013-05-28 04:23:00,63.0,60.0,30.17,WSW,240,0.0,0.0,91,0.00,,,0.00,0,weatherlink.com 1.10,2013-05-28 08:23:00,
2013-05-28 04:38:00,62.8,61.0,30.17,WSW,240,0.0,0.0,92,0.00,,,0.00,0,weatherlink.com 1.10,2013-05-28 08:38:00,
2013-05-28 04:53:00,62.7,60.0,30.17,WSW,240,0.0,0.0,92,0.00,,,0.00,0,weatherlink.com 1.10,2013-05-28 08:53:00,
2013-05-28 05:08:00,62.4,60.0,30.17,WSW,240,0.0,0.0,93,0.00,,,0.00,0,weatherlink.com 1.10,2013-05-28 09:08:00,
2013-05-28 05:23:00,62.3,60.0,30.18,WSW,240,0.0,0.0,93,0.00,,,0.00,0,weatherlink.com 1.10,2013-05-28 09:23:00,
2013-05-28 05:38:00,62.4,61.0,30.18,WSW,240,0.0,0.0,94,0.00,,,0.00,0,weatherlink.com 1.10,2013-05-28 09:38:00,
2013-05-28 05:53:00,63.0,61.0,30.18,WSW,240,0.0,0.0,93,0.00,,,0.00,0,weatherlink.com 1.10,2013-05-28 09:53:00,
2013-05-28 06:08:00,63.3,62.0,30.18,WSW,240,0.0,0.0,94,0.00,,,0.00,0,weatherlink.com 1.10,2013-05-28 10:08:00,
2013-05-28 06:23:00,63.1,61.0,30.18,WSW,240,0.0,0.0,93,0.00,,,0.00,0,weatherlink.com 1.10,2013-05-28 10:23:00,
2013-05-28 06:38:00,62.5,61.0,30.19,WSW,240,0.0,0.0,93,0.00,,,0.00,11,weatherlink.com 1.10,2013-05-28 10:38:00,
2013-05-28 06:53:00,62.2,61.0,30.19,ENE,64,0.0,0.0,94,0.00,,,0.00,30,weatherlink.com 1.10,2013-05-28 10:53:00,
2013-05-28 07:08:00,62.3,61.0,30.20,ENE,59,0.0,0.0,95,0.00,,,0.00,23,weatherlink.com 1.10,2013-05-28 11:08:00,
2013-05-28 07:23:00,62.4,61.0,30.20,East,86,0.0,0.0,95,0.00,,,0.00,19,weatherlink.com 1.10,2013-05-28 11:23:00,
2013-05-28 07:38:00,63.0,62.0,30.20,SE,136,0.0,0.0,95,0.00,,,0.00,30,weatherlink.com 1.10,2013-05-28 11:38:00,
2013-05-28 07:53:00,64.4,63.0,30.19,SE,136,0.0,0.0,95,0.00,,,0.00,51,weatherlink.com 1.10,2013-05-28 11:53:00,
2013-05-28 08:08:00,66.3,64.0,30.20,SE,137,0.0,0.0,93,0.00,,,0.00,278,weatherlink.com 1.10,2013-05-28 12:08:00,
2013-05-28 08:23:00,67.9,65.0,30.20,SSE,149,0.0,1.0,90,0.00,,,0.00,334,weatherlink.com 1.10,2013-05-28 12:23:00,
2013-05-28 08:38:00,69.6,66.0,30.21,WSW,244,0.0,1.0,87,0.00,,,0.00,392,weatherlink.com 1.10,2013-05-28 12:38:00,
2013-05-28 08:53:00,70.6,66.0,30.21,WSW,244,0.0,2.0,85,0.00,,,0.00,452,weatherlink.com 1.10,2013-05-28 12:53:00,
2013-05-28 09:08:00,72.3,67.0,30.22,West,268,0.0,4.0,83,0.00,,,0.00,278,weatherlink.com 1.10,2013-05-28 13:08:00,
2013-05-28 09:23:00,71.3,66.0,30.22,West,268,0.0,1.0,83,0.00,,,0.00,178,weatherlink.com 1.10,2013-05-28 13:23:00,
2013-05-28 09:38:00,72.8,68.0,30.22,NNW,329,1.0,1.0,84,0.00,,,0.00,573,weatherlink.com 1.10,2013-05-28 13:38:00,
2013-05-28 09:53:00,74.9,67.0,30.22,SW,231,0.0,3.0,77,0.00,,,0.00,647,weatherlink.com 1.10,2013-05-28 13:53:00,
2013-05-28 10:08:00,76.4,68.0,30.23,North,355,0.0,6.0,76,0.00,,,0.00,682,weatherlink.com 1.10,2013-05-28 14:08:00,
2013-05-28 10:23:00,77.2,68.0,30.22,NNW,331,0.0,4.0,72,0.00,,,0.00,729,weatherlink.com 1.10,2013-05-28 14:23:00,
2013-05-28 10:38:00,77.9,67.0,30.22,SW,225,0.0,4.0,69,0.00,,,0.00,765,weatherlink.com 1.10,2013-05-28 14:38:00,
2013-05-28 10:54:00,79.4,67.0,30.22,ENE,78,0.0,1.0,67,0.00,,,0.00,879,weatherlink.com 1.10,2013-05-28 14:54:00,
2013-05-28 11:09:00,78.0,67.0,30.22,West,281,0.0,1.0,68,0.00,,,0.00,350,weatherlink.com 1.10,2013-05-28 15:09:00,
2013-05-28 11:24:00,81.1,67.0,30.22,WSW,239,0.0,6.0,63,0.00,,,0.00,946,weatherlink.com 1.10,2013-05-28 15:24:00,
2013-05-28 11:39:00,80.6,68.0,30.22,WNW,295,0.0,1.0,65,0.00,,,0.00,983,weatherlink.com 1.10,2013-05-28 15:39:00,
2013-05-28 11:54:00,81.2,67.0,30.22,WNW,292,0.0,2.0,63,0.00,,,0.00,997,weatherlink.com 1.10,2013-05-28 15:54:00,
2013-05-28 12:09:00,81.7,66.0,30.22,SW,222,0.0,3.0,59,0.00,,,0.00,155,weatherlink.com 1.10,2013-05-28 16:09:00,
2013-05-28 12:24:00,82.0,65.0,30.22,SW,224,0.0,4.0,57,0.00,,,0.00,986,weatherlink.com 1.10,2013-05-28 16:24:00,
2013-05-28 12:39:00,83.0,66.0,30.21,SSW,202,0.0,4.0,56,0.00,,,0.00,984,weatherlink.com 1.10,2013-05-28 16:39:00,
2013-05-28 12:54:00,84.5,65.0,30.20,WNW,288,1.0,2.0,53,0.00,,,0.00,1053,weatherlink.com 1.10,2013-05-28 16:54:00,
2013-05-28 13:09:00,82.9,64.0,30.20,WNW,288,0.0,1.0,53,0.00,,,0.00,202,weatherlink.com 1.10,2013-05-28 17:09:00,
2013-05-28 13:24:00,84.0,65.0,30.20,SE,136,0.0,2.0,53,0.00,,,0.00,1046,weatherlink.com 1.10,2013-05-28 17:24:00,
2013-05-28 13:39:00,84.9,67.0,30.19,WSW,238,0.0,5.0,55,0.00,,,0.00,1100,weatherlink.com 1.10,2013-05-28 17:39:00,
2013-05-28 13:54:00,83.9,65.0,30.19,WSW,249,2.0,3.0,54,0.00,,,0.00,378,weatherlink.com 1.10,2013-05-28 17:54:00,
2013-05-28 14:09:00,84.9,66.0,30.18,SW,221,0.0,3.0,54,0.00,,,0.00,309,weatherlink.com 1.10,2013-05-28 18:09:00,
2013-05-28 14:24:00,84.1,66.0,30.18,WSW,240,0.0,4.0,55,0.00,,,0.00,1092,weatherlink.com 1.10,2013-05-28 18:24:00,
2013-05-28 14:39:00,83.8,66.0,30.17,ESE,102,0.0,6.0,55,0.00,,,0.00,179,weatherlink.com 1.10,2013-05-28 18:39:00,
2013-05-28 14:54:00,84.7,65.0,30.17,SW,221,3.0,9.0,52,0.00,,,0.00,267,weatherlink.com 1.10,2013-05-28 18:54:00,
2013-05-28 15:09:00,84.6,66.0,30.17,SW,227,0.0,4.0,54,0.00,,,0.00,221,weatherlink.com 1.10,2013-05-28 19:09:00,
2013-05-28 15:24:00,83.9,65.0,30.16,SW,227,0.0,6.0,53,0.00,,,0.00,281,weatherlink.com 1.10,2013-05-28 19:24:00,
2013-05-28 15:39:00,84.6,66.0,30.16,SSW,212,1.0,4.0,54,0.00,,,0.00,1000,weatherlink.com 1.10,2013-05-28 19:39:00,
2013-05-28 15:54:00,84.2,66.0,30.16,SW,228,0.0,6.0,54,0.00,,,0.00,826,weatherlink.com 1.10,2013-05-28 19:54:00,
2013-05-28 16:09:00,83.4,65.0,30.15,SW,236,0.0,5.0,54,0.00,,,0.00,144,weatherlink.com 1.10,2013-05-28 20:09:00,
2013-05-28 16:24:00,84.6,66.0,30.15,SW,235,1.0,4.0,54,0.00,,,0.00,795,weatherlink.com 1.10,2013-05-28 20:24:00,
2013-05-28 16:39:00,83.2,66.0,30.15,SW,221,0.0,4.0,56,0.00,,,0.00,631,weatherlink.com 1.10,2013-05-28 20:39:00,
2013-05-28 16:54:00,84.4,67.0,30.14,WSW,252,0.0,4.0,56,0.00,,,0.00,647,weatherlink.com 1.10,2013-05-28 20:54:00,
2013-05-28 17:09:00,84.2,66.0,30.14,SSW,207,1.0,7.0,54,0.00,,,0.00,650,weatherlink.com 1.10,2013-05-28 21:09:00,
2013-05-28 17:24:00,82.8,66.0,30.14,SW,223,1.0,2.0,57,0.00,,,0.00,123,weatherlink.com 1.10,2013-05-28 21:24:00,
2013-05-28 17:39:00,82.9,66.0,30.15,WSW,243,0.0,5.0,57,0.00,,,0.00,517,weatherlink.com 1.10,2013-05-28 21:39:00,
2013-05-28 17:54:00,82.0,66.0,30.14,SSW,213,2.0,7.0,59,0.00,,,0.00,77,weatherlink.com 1.10,2013-05-28 21:54:00,
2013-05-28 18:09:00,82.6,67.0,30.14,West,270,0.0,2.0,59,0.00,,,0.00,151,weatherlink.com 1.10,2013-05-28 22:09:00,
2013-05-28 18:24:00,82.3,66.0,30.14,North,350,0.0,1.0,59,0.00,,,0.00,128,weatherlink.com 1.10,2013-05-28 22:24:00,
2013-05-28 18:39:00,81.6,64.0,30.13,SW,218,0.0,5.0,56,0.00,,,0.00,49,weatherlink.com 1.10,2013-05-28 22:39:00,
2013-05-28 18:54:00,81.2,64.0,30.14,WSW,243,0.0,7.0,57,0.00,,,0.00,44,weatherlink.com 1.10,2013-05-28 22:54:00,
2013-05-28 19:09:00,80.6,64.0,30.14,WSW,251,1.0,8.0,57,0.00,,,0.00,40,weatherlink.com 1.10,2013-05-28 23:09:00,
2013-05-28 19:24:00,80.1,64.0,30.14,SW,223,0.0,5.0,58,0.00,,,0.00,33,weatherlink.com 1.10,2013-05-28 23:24:00,
2013-05-28 19:39:00,79.4,64.0,30.14,SW,236,0.0,2.0,59,0.00,,,0.00,28,weatherlink.com 1.10,2013-05-28 23:39:00,
2013-05-28 19:54:00,78.6,62.0,30.15,SW,216,4.0,4.0,56,0.00,,,0.00,19,weatherlink.com 1.10,2013-05-28 23:54:00,
2013-05-28 20:09:00,77.6,61.0,30.16,WSW,250,1.0,2.0,56,0.00,,,0.00,12,weatherlink.com 1.10,2013-05-29 00:09:00,
2013-05-28 20:24:00,76.6,60.0,30.16,WSW,249,0.0,1.0,57,0.00,,,0.00,0,weatherlink.com 1.10,2013-05-29 00:24:00,
2013-05-28 20:39:00,75.5,60.0,30.17,WSW,249,0.0,0.0,58,0.00,,,0.00,0,weatherlink.com 1.10,2013-05-29 00:39:00,
2013-05-28 20:54:00,74.8,60.0,30.17,WSW,249,0.0,0.0,60,0.00,,,0.00,0,weatherlink.com 1.10,2013-05-29 00:54:00,
2013-05-28 21:09:00,73.7,60.0,30.18,WSW,249,0.0,0.0,62,0.00,,,0.00,0,weatherlink.com 1.10,2013-05-29 01:09:00,
2013-05-28 21:24:00,72.8,59.0,30.18,West,275,0.0,0.0,63,0.00,,,0.00,0,weatherlink.com 1.10,2013-05-29 01:24:00,
2013-05-28 21:39:00,72.8,60.0,30.18,West,275,0.0,0.0,65,0.00,,,0.00,0,weatherlink.com 1.10,2013-05-29 01:39:00,
2013-05-28 21:54:00,72.4,60.0,30.18,West,275,0.0,0.0,65,0.00,,,0.00,0,weatherlink.com 1.10,2013-05-29 01:54:00,
2013-05-28 22:09:00,72.1,60.0,30.20,East,92,0.0,0.0,66,0.00,,,0.00,0,weatherlink.com 1.10,2013-05-29 02:09:00,
2013-05-28 22:24:00,71.9,61.0,30.20,SE,140,0.0,0.0,68,0.00,,,0.00,0,weatherlink.com 1.10,2013-05-29 02:24:00,
2013-05-28 22:39:00,71.4,61.0,30.20,South,180,0.0,0.0,69,0.00,,,0.00,0,weatherlink.com 1.10,2013-05-29 02:39:00,
2013-05-28 22:54:00,71.0,61.0,30.20,SW,218,0.0,0.0,71,0.00,,,0.00,0,weatherlink.com 1.10,2013-05-29 02:54:00,
2013-05-28 23:09:00,70.4,61.0,30.20,SW,218,0.0,0.0,72,0.00,,,0.00,0,weatherlink.com 1.10,2013-05-29 03:09:00,
2013-05-28 23:24:00,69.9,61.0,30.20,SW,218,0.0,0.0,74,0.00,,,0.00,0,weatherlink.com 1.10,2013-05-29 03:24:00,
2013-05-28 23:39:00,69.5,62.0,30.20,SW,217,0.0,0.0,77,0.00,,,0.00,0,weatherlink.com 1.10,2013-05-29 03:39:00,
2013-05-28 23:54:00,69.2,62.0,30.20,SW,218,0.0,0.0,78,0.00,,,0.00,0,weatherlink.com 1.10,2013-05-29 03:54:00,